Lapse_Rate
7.1 7.0 6.9 7.3 7.8 7.8 7.5 7.4 7.2 7.2 7.2 7.2 7.0 7.0 6.8 6.7 6.6 6.5 6.3 6.1 6.0 5.8 6.2 6.1 6.2 6.3 6.3 6.4 6.5 6.4 6.3 6.3 6.2 6.3 6.4 6.5 6.6 6.8 6.6 6.4 6.3 5.9 5.6
7.1 7.2 7.1 7.0 7.6 8.0 7.8 7.3 7.1 6.9 6.9 7.0 6.8 6.6 6.4 6.3 6.1 5.9 5.9 6.0 5.8 5.7 5.6 5.7 6.0 6.3 6.3 6.2 6.1 5.9 5.7 5.7 5.9 5.9 6.1 6.2 6.7 6.6 6.4 6.1 5.9 5.7 5.2
7.7 7.6 7.2 7.0 7.1 7.4 7.6 7.4 7.1 6.8 7.0 7.0 6.7 6.4 6.3 6.2 5.9 5.6 5.7 5.7 5.6 5.6 5.6 5.7 5.9 6.0 6.0 6.0 5.8 5.6 5.6 5.6 5.7 5.7 5.7 5.8 6.1 6.1 5.9 5.7 5.4 5.1 4.9
7.8 7.8 7.8 7.5 7.2 7.4 7.5 7.3 7.1 6.9 6.8 6.6 6.5 6.4 6.1 6.1 6.0 5.8 5.8 5.8 5.8 5.4 5.3 5.6 5.7 5.8 5.8 5.8 5.8 5.7 5.8 5.8 5.7 5.7 5.8 5.7 5.4 5.4 5.5 5.2 4.9 4.4 4.2
7.6 7.5 7.5 7.4 7.3 7.3 7.4 7.2 7.0 6.7 6.5 6.6 6.6 6.3 6.1 6.1 6.0 6.1 6.1 5.5 5.2 5.3 5.3 5.7 5.8 6.0 5.9 5.6 5.6 5.6 5.5 5.4 5.5 5.6 5.7 5.6 5.4 5.4 5.1 4.9 4.3 3.9 4.0
7.8 7.5 7.3 7.4 7.6 7.3 7.0 7.0 6.9 6.6 6.7 6.6 6.5 6.3 6.3 6.1 6.0 5.7 5.4 5.3 5.1 5.0 5.4 5.6 5.5 5.0 4.8 5.1 5.2 5.2 5.4 5.6 5.7 5.7 5.4 5.0 4.7 4.4 4.1 4.0 4.0 4.1 4.1
7.8 7.5 7.3 7.2 6.7 6.7 7.1 6.9 6.8 6.8 6.8 6.6 6.4 6.3 6.2 6.1 5.9 5.6 5.4 5.5 5.7 5.6 5.5 5.2 5.0 5.4 5.4 5.4 5.5 5.7 5.5 5.3 5.2 5.1 5.0 4.8 4.5 4.3 4.1 3.9 3.9 3.8 4.2
7.7 7.4 7.3 7.2 6.9 6.8 6.6 6.7 6.5 6.9 6.6 6.3 6.3 6.3 6.3 6.2 6.0 5.8 5.9 6.0 5.9 5.9 5.8 5.3 5.1 5.4 5.6 5.6 5.6 5.5 5.4 5.2 5.3 5.2 4.9 4.5 4.4 4.2 4.2 4.0 4.2 4.5 5.2
7.6 7.4 7.2 7.1 7.0 7.0 7.0 6.7 6.2 6.0 6.4 6.4 6.5 6.6 6.6 6.4 6.2 6.2 6.1 6.1 6.3 6.3 6.0 5.5 5.5 5.5 5.4 5.6 5.4 5.4 5.2 5.2 5.0 4.8 4.7 4.7 4.6 4.3 4.1 4.2 4.8 5.3 5.7
7.2 7.1 7.1 7.2 7.1 7.2 6.9 6.6 6.3 6.2 6.2 6.5 6.7 6.8 6.6 6.4 6.4 6.4 6.2 6.1 6.1 6.4 6.2 5.0 5.3 5.3 5.4 5.4 5.2 5.2 5.1 5.1 5.0 4.9 4.9 5.0 4.6 4.4 4.6 5.1 5.6 5.9 6.3
7.6 7.4 7.2 7.1 6.9 6.7 6.7 6.5 6.3 6.2 6.5 7.0 7.0 6.8 6.5 6.5 6.4 6.4 6.3 6.4 6.0 5.2 5.1 5.3 5.4 5.3 5.4 5.1 5.0 5.1 5.2 5.0 4.7 4.8 4.9 5.0 4.5 4.5 4.9 5.5 5.7 6.4 6.7
7.2 7.0 6.9 6.8 6.7 6.7 6.8 7.0 6.9 6.6 6.2 6.2 6.5 6.6 6.4 6.6 6.7 6.4 6.4 6.5 6.2 5.0 4.9 5.1 4.9 5.1 5.3 5.2 5.4 5.3 5.0 4.9 4.9 4.9 4.9 4.5 4.4 4.8 5.5 5.7 6.4 6.7 7.0
7.1 6.8 6.6 6.4 6.3 6.2 6.5 5.9 5.9 6.3 6.5 6.4 6.6 6.5 6.8 6.6 6.7 6.4 6.3 6.3 5.6 4.7 5.0 4.6 4.6 5.0 5.3 5.1 5.2 5.2 4.9 4.6 4.5 4.5 4.5 4.4 4.6 5.0 5.7 6.3 6.8 7.1 7.3
7.3 7.0 6.8 6.6 6.6 6.5 6.0 6.0 6.0 6.4 6.5 6.7 6.6 6.6 6.5 6.6 6.4 6.3 6.2 5.2 4.5 4.7 4.5 4.6 4.7 4.8 5.3 5.3 5.0 4.8 4.7 4.6 4.5 4.5 4.2 4.4 4.9 5.5 6.2 6.8 7.0 7.2 7.3
7.5 7.5 7.1 7.0 6.9 6.5 6.4 6.6 6.4 6.4 6.8 6.6 6.6 6.4 6.3 6.2 6.2 6.1 5.0 5.0 4.2 4.2 4.1 4.2 4.0 4.8 5.1 4.8 4.6 4.6 4.6 4.2 4.6 4.6 4.7 5.2 5.4 6.1 6.5 6.8 7.2 7.4 7.2
7.7 7.6 7.4 7.2 7.2 7.0 6.8 6.8 6.6 6.6 6.7 6.5 6.5 6.4 6.2 6.3 6.5 5.4 5.0 3.6 3.8 4.1 3.7 3.9 4.6 4.7 4.8 4.8 4.8 4.7 4.3 4.8 5.0 5.0 5.4 5.8 6.0 6.4 6.7 7.1 7.4 7.1 6.8
7.6 7.6 7.3 7.1 7.1 7.3 7.2 6.6 6.3 6.3 6.4 6.4 6.4 6.3 6.4 6.4 5.7 5.3 4.3 4.0 3.8 3.6 3.5 3.9 4.5 5.0 5.0 4.9 4.7 4.8 5.2 5.3 5.4 5.7 5.8 6.1 6.5 6.7 6.9 7.2 7.3 7.0 6.5
7.2 7.3 7.1 7.1 6.9 6.9 6.9 6.4 6.4 6.3 6.3 6.4 6.2 6.2 6.2 5.9 5.4 5.2 4.2 4.1 4.2 3.8 3.7 4.5 5.3 5.2 5.1 4.9 5.0 5.5 5.6 5.5 5.7 6.0 6.1 6.5 6.7 6.9 7.2 7.6 7.4 7.3 6.9
6.4 6.3 6.4 6.6 6.6 6.4 6.6 6.5 6.4 6.2 6.2 6.2 6.1 6.0 6.0 5.3 5.0 4.5 5.0 5.0 4.4 4.3 4.6 5.2 5.3 5.2 5.1 5.3 5.5 6.0 6.0 6.0 6.1 6.4 6.5 6.7 6.8 7.1 7.4 7.6 7.6 7.4 7.0
6.3 6.6 6.7 6.8 6.8 6.8 6.7 6.6 6.6 6.6 6.3 6.2 6.3 6.3 5.8 5.0 5.2 5.2 4.8 4.7 4.6 4.9 5.3 5.3 5.2 5.2 5.5 5.8 6.1 6.4 6.5 6.4 6.4 6.7 6.7 6.8 6.9 7.2 7.5 7.6 7.6 7.6 7.2
6.2 6.3 6.4 6.4 6.2 6.3 6.3 6.3 6.3 6.4 6.4 6.5 6.4 5.5 5.1 5.3 5.2 5.2 5.0 5.0 5.4 5.5 5.6 5.4 5.7 6.3 6.6 6.6 6.7 6.8 6.8 6.6 6.7 7.0 7.0 6.9 7.2 7.3 7.6 7.7 7.7 7.6 7.4
6.3 6.1 6.1 6.0 6.0 6.0 6.1 6.2 6.4 6.3 6.2 5.9 5.3 5.3 5.4 5.4 5.6 5.3 5.2 5.5 5.7 5.8 6.0 6.6 6.6 6.6 6.8 6.9 6.9 7.0 6.9 6.7 7.0 7.2 7.2 7.0 7.1 7.4 7.6 7.6 7.6 7.5 7.5
6.3 6.0 5.8 5.7 5.8 5.7 5.5 5.9 5.7 5.1 4.9 5.1 5.4 5.7 5.8 5.4 5.3 5.6 5.8 5.8 6.0 6.5 6.6 6.8 6.8 6.9 7.1 7.2 7.1 7.1 7.0 7.1 7.4 7.2 7.3 7.3 7.3 7.4 7.5 7.5 7.6 7.6 7.6
5.4 5.4 5.3 5.3 5.4 5.6 5.4 5.3 5.1 5.3 5.6 5.7 5.7 5.5 5.3 5.5 5.9 6.0 6.0 6.2 6.5 6.8 6.8 6.8 6.8 7.0 7.2 7.2 7.0 7.1 7.1 7.2 7.5 7.4 7.3 7.4 7.3 7.4 7.4 7.5 7.6 7.6 7.7
5.0 4.9 5.1 5.4 5.4 5.1 5.1 5.2 5.4 5.6 5.5 5.5 5.4 5.5 5.6 5.9 6.2 6.4 6.6 6.7 6.6 6.6 6.6 6.5 6.8 7.1 7.2 7.2 7.1 7.1 7.3 7.3 7.4 7.6 7.6 7.5 7.4 7.5 7.5 7.4 7.5 7.6 7.6
5.3 5.3 5.4 5.3 5.1 5.1 5.2 5.2 5.4 5.6 5.6 5.4 5.4 5.7 6.1 6.4 6.6 6.7 6.8 6.6 6.4 6.4 6.4 6.8 7.1 7.2 7.2 7.3 7.2 7.2 7.2 7.2 7.4 7.7 7.5 7.5 7.4 7.4 7.5 7.4 7.4 7.5 7.5
Wind_Speed
11 13 13 19 16 17 17 16 14 11 8 4 3 2 3 3 3 8 13 13 11 11 11 5 4 7 4 3 3 1 2 2 3 1 3 2 4 4 3 7 10 12 14
12 9 10 15 19 18 15 14 13 12 8 5 3 3 4 3 4 9 10 11 12 10 10 8 6 6 3 5 3 2 2 1 2 2 2 4 5 2 5 4 3 4 9
15 12 11 18 15 14 14 13 14 13 10 9 4 4 3 4 2 3 3 9 14 12 12 9 8 6 5 1 2 2 3 2 2 1 1 3 3 2 2 4 3 5 4
13 13 11 15 17 13 13 13 14 13 10 8 8 7 5 6 4 5 4 7 12 10 8 10 8 6 3 4 2 4 2 2 3 2 2 3 3 2 3 2 3 4 5
18 16 13 14 16 16 15 13 13 11 9 10 11 9 5 4 4 4 8 4 9 13 7 9 14 9 7 4 4 4 4 2 2 2 2 2 1 2 3 5 2 3 4
15 14 14 16 18 16 14 12 13 10 10 9 10 10 8 6 8 8 7 5 2 7 13 13 10 7 5 3 3 4 4 5 5 3 3 3 2 2 3 3 3 4 3
9 11 15 12 13 13 13 11 10 9 11 8 8 8 8 8 8 7 5 5 4 4 5 6 7 5 6 8 7 4 4 5 3 4 2 2 1 1 4 4 3 2 2
11 14 14 12 11 12 10 11 12 15 11 9 8 8 9 5 5 6 6 5 4 4 8 7 9 8 7 7 8 4 4 4 3 4 3 3 2 3 3 3 1 3 3
8 11 10 11 11 9 9 8 11 10 9 8 8 8 7 7 7 7 6 5 5 5 7 8 5 5 5 6 7 3 3 4 3 3 4 2 2 2 2 2 3 3 6
8 8 9 10 7 9 7 7 8 9 7 9 8 7 7 7 7 6 5 6 4 6 6 5 3 2 3 6 6 3 3 4 2 0 2 2 2 4 3 3 3 2 3
9 8 8 11 11 9 8 8 7 8 10 10 7 7 7 7 5 5 6 6 5 4 4 3 1 2 4 3 3 3 2 3 3 4 3 4 2 3 3 4 3 3 3
11 10 11 13 12 12 11 9 8 11 10 8 8 7 6 5 6 5 6 7 6 5 4 2 2 3 3 3 0 2 4 4 3 5 5 3 3 3 3 2 2 0 2
11 11 12 14 14 13 14 11 10 10 10 10 8 5 4 4 5 6 5 5 6 4 3 0 3 4 5 3 3 5 4 1 3 3 4 4 2 1 1 1 1 2 3
14 14 13 15 14 13 13 12 13 13 11 9 7 6 5 5 5 5 5 5 4 3 1 3 5 5 5 4 3 3 4 2 2 3 5 5 2 3 3 3 3 1 2
7 9 10 8 8 8 7 10 11 12 10 9 6 5 5 7 6 6 4 3 3 2 4 5 5 3 3 1 4 3 2 1 3 4 5 2 3 6 5 0 1 2 3
7 7 10 11 10 11 10 11 12 12 9 7 6 8 8 6 7 2 2 0 3 4 3 2 2 4 2 8 8 6 3 1 2 5 5 4 4 6 7 5 3 4 3
8 6 7 8 8 11 13 14 12 10 8 9 9 8 7 6 4 2 1 3 5 5 3 4 5 5 3 10 10 8 4 2 3 5 4 3 2 4 3 2 5 7 12
8 7 5 6 7 8 11 12 12 12 10 10 10 9 7 5 2 5 3 5 3 4 4 5 5 5 4 13 11 9 3 2 5 5 3 3 2 3 2 2 3 4 5
6 6 9 9 11 12 12 15 12 12 11 10 11 9 6 6 4 4 5 4 4 4 4 4 4 5 3 11 11 8 3 4 4 5 4 4 3 4 2 2 4 5 6
14 15 15 14 14 10 12 14 12 13 12 10 9 8 6 4 3 5 5 3 3 5 4 4 4 6 6 11 12 8 3 4 3 4 1 2 4 1 4 2 3 4 7
17 17 18 16 14 13 16 15 14 12 12 10 6 1 2 5 5 4 3 5 5 5 6 5 5 5 6 7 13 14 4 5 3 3 1 2 7 5 7 7 4 6 6
16 16 16 14 12 12 14 12 12 8 6 4 4 6 2 4 6 7 7 6 5 6 5 3 4 4 6 9 13 16 15 10 4 4 3 4 10 9 10 8 11 13 8
14 12 13 12 9 9 9 9 6 5 4 1 4 4 5 7 7 5 5 4 5 4 5 3 3 4 4 4 11 17 16 12 5 3 7 11 11 12 9 13 14 8 3
10 9 10 8 5 3 5 5 5 4 3 2 5 5 5 5 5 4 4 4 3 3 3 3 4 4 3 3 3 4 7 14 8 7 6 5 6 7 7 6 7 4 4
7 6 5 5 6 6 5 2 2 3 4 4 5 5 4 5 5 4 3 1 4 4 3 4 4 4 5 6 7 7 4 4 6 4 3 3 3 3 4 3 4 3 2
6 6 6 5 3 4 4 4 4 4 5 5 4 3 3 4 4 4 5 7 8 10 11 11 6 6 13 11 12 12 12 13 11 3 3 3 3 4 5 4 4 2 3
Wind_Direction
164 159 150 142 133 137 138 143 139 142 134 134 138 125 159 167 161 157 144 130 127 119 119 134 121 75 80 47 45 99 16 321 347 33 318 287 289 342 9 24 24 19 25
153 151 133 143 145 151 145 147 150 156 153 157 167 157 154 175 161 162 163 148 147 138 122 118 112 85 61 41 29 31 334 326 8 321 309 341 319 355 339 350 12 9 353
163 159 138 147 145 153 152 158 158 165 170 184 164 130 123 99 124 176 161 170 146 142 155 145 130 116 112 85 7 360 35 287 307 328 213 321 279 300 288 318 333 341 346
170 166 156 149 152 150 155 160 165 175 184 182 159 162 168 169 182 176 152 152 149 155 159 151 156 146 99 45 17 27 10 32 322 320 270 195 185 278 311 335 318 314 334
168 170 163 135 152 146 158 170 176 186 180 187 167 175 181 181 155 153 138 148 167 182 181 79 86 77 66 50 34 354 334 295 244 247 235 228 235 225 242 300 296 330 304
166 167 164 147 156 161 165 169 181 189 183 168 168 173 166 151 132 142 152 164 129 102 97 95 93 93 72 45 5 352 332 305 293 277 227 199 208 245 285 288 277 243 264
139 146 148 154 150 160 166 164 184 178 172 154 159 135 137 128 131 148 146 128 109 93 89 87 78 63 40 17 360 342 325 308 328 320 304 287 266 261 260 288 274 283 296
140 153 157 159 155 162 174 179 174 165 160 151 141 133 127 129 121 117 116 112 103 109 104 84 58 34 20 359 337 343 343 29 11 32 1 323 300 251 239 231 260 298 275
140 149 154 150 156 155 150 148 150 155 149 146 129 123 122 117 123 122 111 119 122 115 87 73 58 23 353 351 55 39 17 7 346 14 33 7 315 348 342 267 227 201 296
150 150 146 142 143 135 145 143 142 154 146 127 131 130 125 118 114 104 97 82 96 108 94 71 56 356 35 73 54 15 343 43 1 77 342 292 273 297 322 328 342 347 314
172 166 155 155 154 149 152 169 146 140 132 128 121 120 121 119 117 120 107 125 125 91 95 95 42 285 153 104 74 12 310 347 336 313 311 315 359 31 14 39 40 30 17
177 171 165 166 165 165 166 167 148 136 138 132 122 122 118 122 130 124 130 143 155 132 105 69 316 275 158 138 72 280 304 280 285 298 335 351 32 357 65 84 43 192 266
176 177 169 171 170 170 168 151 144 139 131 127 122 129 158 162 144 132 169 159 129 126 101 111 266 253 175 193 241 233 239 331 31 16 355 309 312 45 243 303 346 327 333
186 184 181 183 176 164 159 152 141 136 134 131 136 157 163 166 137 134 135 121 125 117 199 240 265 228 188 212 271 97 120 104 36 353 340 317 119 214 256 250 274 326 316
201 189 177 142 132 143 138 130 131 135 139 135 148 167 149 106 117 107 109 130 106 224 250 257 279 203 194 214 142 135 109 78 341 339 326 286 282 323 215 195 293 311 289
33 103 126 140 151 144 146 145 140 131 131 127 114 105 106 96 69 102 179 39 274 269 276 309 287 215 226 165 160 157 167 245 318 304 303 294 337 71 82 85 25 330 300
61 85 132 152 151 149 149 142 139 132 113 111 113 112 94 91 123 95 42 302 266 235 237 277 286 239 174 184 178 169 175 220 281 280 298 300 100 133 147 355 344 327 318
46 62 102 102 112 116 117 117 114 111 106 92 81 64 53 85 92 44 317 279 298 255 249 256 266 211 224 186 186 179 191 255 272 288 284 307 238 194 146 357 326 303 298
45 58 67 76 79 91 104 102 99 96 90 80 74 65 57 39 1 312 344 290 277 273 266 266 247 216 234 183 187 182 196 239 263 271 303 316 141 182 8 357 316 304 300
53 72 71 70 71 69 79 82 80 80 77 72 65 47 32 353 336 275 253 252 295 281 285 219 202 192 187 199 198 197 187 228 233 267 308 153 172 182 327 266 262 288 290
75 73 67 69 68 71 79 77 78 74 72 67 63 41 261 247 252 290 260 250 259 273 281 255 236 221 194 208 209 213 205 221 222 213 245 209 200 229 288 296 226 242 268
78 76 77 70 65 70 77 76 74 77 88 110 205 237 290 344 298 265 265 251 257 266 256 237 241 223 232 228 215 220 219 220 198 217 224 250 256 284 302 295 276 278 275
79 77 83 83 76 83 99 117 162 154 134 214 8 339 279 263 266 272 280 283 274 253 248 216 224 242 241 239 249 216 220 218 223 210 236 255 257 275 283 279 277 277 244
76 82 88 96 113 111 71 69 64 46 46 267 258 260 265 274 292 294 287 285 278 270 238 239 244 246 246 238 226 210 215 229 217 231 246 241 241 242 251 269 270 255 229
102 96 77 63 57 43 25 341 283 244 265 275 278 276 285 290 288 283 279 262 252 214 233 241 234 237 243 235 220 199 203 213 220 204 211 237 249 262 271 249 246 247 242
54 56 52 43 351 331 350 345 317 274 264 270 272 261 271 272 260 266 278 253 260 280 270 262 243 259 247 223 215 210 208 209 192 176 189 225 233 247 266 241 253 256 237